K5BV Weather Reports


Display with metric or nautical units.
time (UTC)temp
F
wind
direction
speed
MPH
gust
MPH
rain 1hr
in
rain 24hr
in
rain mn
in
humidity
%
barometer
mb
20260508211233 80 0 0.0 0.0 0.00 0.00 0.00 94 1008.9
20260508210233 80 0 0.0 0.0 0.00 0.00 0.00 92 1008.9
20260508205233 81 0 0.0 0.0 0.00 0.00 0.00 91 1009.1
20260508204234 82 0 0.0 0.0 0.00 0.00 0.00 88 1009.3
20260508203234 82 0 0.0 0.0 0.00 0.00 0.00 88 1009.4
20260508202232 82 0 0.0 0.0 0.00 0.00 0.00 87 1009.5
20260508201233 82 0 0.0 0.0 0.00 0.00 0.00 87 1009.6
20260508200233 82 0 0.0 0.0 0.00 0.00 0.00 86 1009.7
20260508194233 83 0 0.0 0.0 0.00 0.00 0.00 87 1009.9
20260508193233 82 0 0.0 0.0 0.00 0.00 0.00 88 1010.0
20260508192233 83 0 0.0 0.0 0.00 0.00 0.00 87 1010.1
20260508190233 83 0 0.0 0.0 0.00 0.00 0.00 86 1010.4
20260508184234 84 0 0.0 0.0 0.00 0.00 0.00 84 1010.5
20260508182233 84 0 0.0 0.0 0.00 0.00 0.00 84 1010.8
20260508181233 83 0 0.0 0.0 0.00 0.00 0.00 86 1011.0
20260508180233 82 0 0.0 0.0 0.00 0.00 0.00 86 1011.0
20260508175233 82 0 0.0 0.0 0.00 0.00 0.00 87 1011.1
20260508174234 81 0 0.0 0.0 0.00 0.00 0.00 87 1011.2
20260508173233 81 0 0.0 0.0 0.00 0.00 0.00 88 1011.3
20260508172233 81 0 0.0 0.0 0.00 0.00 0.00 89 1011.4
20260508171233 80 0 0.0 0.0 0.00 0.00 0.00 89 1011.5
20260508170242 80 0 0.0 0.0 0.00 0.00 0.00 90 1011.6
20260508165232 80 0 0.0 0.0 0.00 0.00 0.00 91 1011.7
20260508164234 79 0 0.0 0.0 0.00 0.00 0.00 91 1011.9
20260508162234 78 0 0.0 0.0 0.00 0.00 0.00 94 1012.1
20260508161233 76 0 0.0 0.0 0.00 0.00 0.00 95 1012.0
20260508160233 76 0 0.0 0.0 0.00 0.00 0.00 95 1012.0
20260508154233 75 0 0.0 0.0 0.00 0.00 0.00 95 1012.2
20260508152233 74 0 0.0 0.0 0.00 0.00 0.00 96 1012.6
20260508151233 73 0 0.0 0.0 0.00 0.00 0.00 96 1012.6
20260508145233 73 0 0.0 0.0 0.00 0.00 0.00 96 1013.1
20260508144234 72 0 0.0 0.0 0.00 0.00 0.00 96 1013.5
20260508143233 72 0 0.0 0.0 0.00 0.00 0.00 96 1013.6
20260508142232 72 0 0.0 0.0 0.00 0.00 0.00 96 1013.5
20260508141232 71 0 0.0 0.0 0.00 0.00 0.00 96 1013.3
20260508140232 71 0 0.0 0.0 0.00 0.00 0.00 96 1013.2
20260508134233 70 0 0.0 0.0 0.00 0.00 0.00 97 1013.5
20260508133233 69 0 0.0 0.0 0.00 0.00 0.00 97 1013.8
20260508132232 69 0 0.0 0.0 0.00 0.00 0.00 97 1013.9
20260508131233 69 0 0.0 0.0 0.00 0.00 0.00 97 1013.7
20260508130235 69 0 0.0 0.0 0.00 0.00 0.00 97 1013.3
20260508125232 69 0 0.0 0.0 0.00 0.00 0.00 97 1013.6
20260508124233 68 0 0.0 0.0 0.00 0.00 0.00 97 1013.4
20260508123234 69 0 0.0 0.0 0.00 0.00 0.00 98 1013.2
20260508122232 68 0 0.0 0.0 0.00 0.00 0.00 98 1013.0
20260508120233 68 0 0.0 0.0 0.00 0.00 0.00 98 1012.8
20260508115232 69 0 0.0 0.0 0.00 0.00 0.00 98 1012.7
20260508114233 70 0 0.0 0.0 0.00 0.00 0.00 98 1012.6
20260508113233 70 0 0.0 0.0 0.00 0.00 0.00 98 1012.5
20260508112233 70 0 0.0 0.0 0.00 0.00 0.00 98 1012.4
20260508111233 70 0 0.0 0.0 0.00 0.00 0.00 98 1012.4
20260508110234 71 0 0.0 0.0 0.00 0.00 0.00 98 1012.0
20260508105234 71 0 0.0 0.0 0.00 0.00 0.00 98 1012.0
20260508104233 71 0 0.0 0.0 0.00 0.00 0.00 98 1011.8
20260508103234 71 0 0.0 0.0 0.00 0.00 0.00 98 1011.7
20260508102233 71 0 0.0 0.0 0.00 0.00 0.00 98 1012.3
20260508101232 71 0 0.0 0.0 0.00 0.00 0.00 98 1012.4
20260508100232 71 0 0.0 0.0 0.00 0.00 0.00 98 1012.6
20260508095234 71 0 0.0 0.0 0.00 0.00 0.00 98 1012.4
20260508094233 71 0 0.0 0.0 0.00 0.00 0.00 98 1012.5
20260508093233 71 0 0.0 0.0 0.00 0.00 0.00 98 1012.7
20260508092233 71 0 0.0 0.0 0.00 0.00 0.00 98 1012.9
20260508091232 70 0 0.0 0.0 0.00 0.00 0.00 98 1013.0
20260508090232 72 0 0.0 0.0 0.00 0.00 0.00 97 1012.6
20260508085232 73 0 0.0 0.0 0.00 0.00 0.00 97 1012.5
20260508084233 74 0 0.0 0.0 0.00 0.00 0.00 97 1012.7
20260508083232 74 0 0.0 0.0 0.00 0.00 0.00 97 1012.7
20260508082233 74 0 0.0 0.0 0.00 0.00 0.00 97 1013.2
20260508081233 74 0 0.0 0.0 0.00 0.00 0.00 97 1013.4
20260508080232 74 0 0.0 0.0 0.00 0.00 0.00 97 1013.4
20260508075232 74 0 0.0 0.0 0.00 0.00 0.00 97 1013.2
20260508074233 74 0 0.0 0.0 0.00 0.00 0.00 97 1013.6
20260508073232 75 0 0.0 0.0 0.00 0.00 0.00 97 1013.8
20260508072232 74 0 0.0 0.0 0.00 0.00 0.00 97 1013.7
20260508071233 74 0 0.0 0.0 0.00 0.00 0.00 97 1013.5
20260508070233 74 0 0.0 0.0 0.00 0.00 0.00 97 1013.1
20260508065232 74 0 0.0 0.0 0.00 0.00 0.00 97 1013.5
20260508064232 74 0 0.0 0.0 0.00 0.00 0.00 97 1013.6
20260508063232 74 0 0.0 0.0 0.00 0.00 0.00 97 1013.8
20260508062232 74 0 0.0 0.0 0.00 0.00 0.00 96 1013.7
20260508060232 74 0 0.0 0.0 0.00 0.00 0.00 96 1014.0
20260508055233 74 0 0.0 0.0 0.00 0.00 0.00 96 1013.7
20260508054232 74 0 0.0 0.0 0.00 0.00 0.00 96 1013.9
20260508053233 74 0 0.0 0.0 0.00 0.00 0.00 96 1013.9
20260508052232 73 0 0.0 0.0 0.00 0.00 0.00 96 1014.2
20260508051233 74 0 0.0 0.0 0.00 0.00 0.00 96 1014.8
20260508050237 74 0 0.0 0.0 0.00 0.00 0.00 96 1014.8
20260508045232 74 0 0.0 0.0 0.00 0.00 0.00 96 1014.0
20260508044232 73 0 0.0 0.0 0.00 0.00 0.00 96 1013.2
20260508043232 73 0 0.0 0.0 0.00 0.00 0.00 96 1012.7
20260508042233 73 0 0.0 0.0 0.00 0.00 0.00 96 1011.9
20260508041232 73 0 0.0 0.0 0.00 0.00 0.00 96 1012.3
20260508040232 73 0 0.0 0.0 0.00 0.00 0.00 95 1012.7
20260508035233 73 0 0.0 0.0 0.00 0.00 0.00 95 1013.3
20260508034232 73 0 0.0 0.0 0.00 0.00 0.00 94 1013.7
20260508033232 73 0 0.0 0.0 0.00 0.00 0.00 93 1014.3
20260508032233 73 0 0.0 0.0 0.00 0.00 0.00 93 1014.5
20260508031233 73 0 0.0 0.0 0.00 0.00 0.00 93 1014.8
20260508030232 73 0 0.0 0.0 0.00 0.00 0.00 93 1014.9
20260508025233 73 0 0.0 0.0 0.00 0.00 0.00 93 1014.8
20260508024233 73 0 0.0 0.0 0.00 0.00 0.00 93 1014.6
20260508023339 73 0 0.0 0.0 0.00 0.00 0.00 92 1014.4
20260508022233 73 0 0.0 0.0 0.00 0.00 0.00 92 1014.6
20260508021233 73 0 0.0 0.0 0.00 0.00 0.00 92 1014.7
20260508020233 72 0 0.0 0.0 0.00 0.00 0.00 92 1014.5
20260508013234 72 0 0.0 0.0 0.00 0.00 0.00 92 1014.0
20260508012234 72 0 0.0 0.0 0.00 0.00 0.00 91 1013.9
20260508011234 72 0 0.0 0.0 0.00 0.00 0.00 90 1013.9
20260508010233 73 0 0.0 0.0 0.00 0.00 0.00 90 1013.8
20260508005234 72 0 0.0 0.0 0.00 0.00 0.00 90 1013.7
20260508004235 72 0 0.0 0.0 0.00 0.00 0.00 89 1013.8
20260508003234 72 0 0.0 0.0 0.00 0.00 0.00 88 1013.6
20260508002234 72 0 0.0 0.0 0.00 0.00 0.00 88 1013.6
20260508001236 73 0 0.0 0.0 0.00 0.00 0.00 87 1013.7
20260508000234 73 0 0.0 0.0 0.00 0.00 0.00 87 1013.6
20260507235233 73 0 0.0 0.0 0.00 0.00 0.00 87 1013.6
20260507234235 73 0 0.0 0.0 0.00 0.00 0.00 86 1013.4
20260507233234 73 0 0.0 0.0 0.00 0.00 0.00 86 1013.6
20260507232234 73 0 0.0 0.0 0.00 0.00 0.00 86 1013.8
20260507231234 73 0 0.0 0.0 0.00 0.00 0.00 86 1013.6
20260507230234 73 0 0.0 0.0 0.00 0.00 0.00 87 1013.6
20260507225234 73 0 0.0 0.0 0.00 0.00 0.00 86 1013.4
20260507224234 73 0 0.0 0.0 0.00 0.00 0.00 87 1013.4
20260507223234 73 0 0.0 0.0 0.00 0.00 0.00 87 1013.3
20260507222234 73 0 0.0 0.0 0.00 0.00 0.00 87 1013.4
20260507221234 73 0 0.0 0.0 0.00 0.00 0.00 86 1013.4
20260507220234 73 0 0.0 0.0 0.00 0.00 0.00 87 1013.3
20260507215234 73 0 0.0 0.0 0.00 0.00 0.00 86 1013.2
20260507214234 74 0 0.0 0.0 0.00 0.00 0.00 86 1013.3
20260507213233 73 0 0.0 0.0 0.00 0.00 0.00 87 1013.5
20260507212234 73 0 0.0 0.0 0.00 0.00 0.00 88 1013.5